Weather History for Chillicothe, MO

Change the Weather History Date:

Friday, September 14, 2012

  Actual Average (KIRK) Record (KIRK)
Temperature  
Mean Temperature 61 °F 65 °F  
Max Temperature 72 °F 77 °F 98 °F (1939)
Min Temperature 50 °F 54 °F 36 °F (1923)
Degree Days  
Heating Degree Days 4 2  
Month to date heating degree days 20  
Since 1 July heating degree days 27  
Cooling Degree Days 0 3  
Month to date cooling degree days 58  
Year to date cooling degree days 902  
Growing Degree Days 11 (Base 50)    
Moisture  
Dew Point 50 °F    
Average Humidity 76    
Maximum Humidity 93    
Minimum Humidity 41    
Precipitation  
Precipitation 0.00 in 0.14 in 3.00 in (1993)
Month to date precipitation 2.12  
Year to date precipitation 29.53  
Sea Level Pressure  
Sea Level Pressure 30.37 in    
Wind  
Wind Speed 1 mph (NNE)    
Max Wind Speed 7 mph    
Max Gust Speed -    
T = Trace of Precipitation, MM = Missing Value Source: NWS Daily Summary

Daily Weather History Graph

Daily Weather History Graph

Search for Another Location

Airport:

Trip Planner

Search our weather history database for the weather conditions in past years. The results will help you decide how hot, cold, wet, or windy it might be!

Date:

Astronomy

Sep. 14, 2012 Rise Set
Actual Time 6:54 AM CDT 7:23 PM CDT
Civil Twilight 6:27 AM CDT 7:50 PM CDT
Nautical Twilight 5:55 AM CDT 8:22 PM CDT
Astronomical Twilight 5:23 AM CDT 8:55 PM CDT
Moon 5:20 AM CDT (9/14) 6:20 PM CDT (9/14)
Length of Visible Light 13h 23m
Length of Day
12h 28m
Waning Crescent, 2% of the Moon is Illuminated
Sep 14
Waning Crescent
Sep 15
New
Sep 22
First Quarter
Sep 29
Full
Oct 8
Last Quarter

Hourly Weather History & Observations

Time (CDT) Temp. Dew Point Humidity Pressure Visibility Wind Dir Wind Speed Gust Speed Precip Events Conditions
12:52 AM 52.0 °F 50.0 °F 93% 30.40 in - Calm Calm - N/A   Unknown
1:52 AM 52.0 °F 50.0 °F 93% 30.41 in - Calm Calm - N/A   Unknown
2:52 AM 51.1 °F 48.9 °F 92% 30.40 in - Calm Calm - N/A   Unknown
3:52 AM 51.1 °F 48.9 °F 92% 30.38 in - Calm Calm - N/A   Unknown
4:52 AM 51.1 °F 48.9 °F 92% 30.37 in - Calm Calm - N/A   Unknown
5:52 AM 50.0 °F 48.0 °F 93% 30.38 in - Calm Calm - N/A   Unknown
6:52 AM 50.0 °F 48.0 °F 93% 30.40 in - Calm Calm - N/A   Unknown
7:52 AM 51.1 °F 48.9 °F 92% 30.41 in - Calm Calm - N/A   Unknown
8:52 AM 52.0 °F 50.0 °F 93% 30.42 in - North 3.5 mph - N/A   Unknown
9:52 AM 57.0 °F 53.1 °F 87% 30.43 in - NW 3.5 mph - N/A   Unknown
10:52 AM 59.0 °F 51.1 °F 75% 30.43 in - North 4.6 mph - N/A   Unknown
11:52 AM 63.0 °F 50.0 °F 63% 30.41 in - North 6.9 mph - N/A   Unknown
12:52 PM 66.0 °F 48.9 °F 54% 30.40 in - NE 6.9 mph - N/A   Unknown
1:52 PM 69.1 °F 46.0 °F 44% 30.38 in - Variable 4.6 mph - N/A   Unknown
2:52 PM 69.1 °F 46.0 °F 44% 30.36 in - Variable 6.9 mph - N/A   Unknown
3:52 PM 72.0 °F 46.9 °F 41% 30.35 in - NE 4.6 mph - N/A   Unknown
4:52 PM 71.1 °F 46.9 °F 42% 30.33 in - NE 4.6 mph - N/A   Unknown
5:52 PM 70.0 °F 48.9 °F 47% 30.32 in - NE 3.5 mph - N/A   Unknown
6:52 PM 66.9 °F 54.0 °F 63% 30.32 in - Calm Calm - N/A   Unknown
7:52 PM 61.0 °F 55.0 °F 81% 30.33 in - Calm Calm - N/A   Unknown
8:52 PM 57.0 °F 53.1 °F 87% 30.33 in - Calm Calm - N/A   Unknown
9:52 PM 54.0 °F 51.1 °F 90% 30.33 in - Calm Calm - N/A   Unknown
10:52 PM 52.0 °F 48.9 °F 89% 30.34 in - Calm Calm - N/A   Unknown
11:52 PM 50.0 °F 48.0 °F 93% 30.34 in - Calm Calm - N/A   Unknown